Retour au catalogue

PSLV R/B

ActifSSO
NORAD 43620·ROCKET BODY·🇮🇳 India

Lancé Sep 16, 2018 depuis Satish Dhawan Space Centre

Loading…

Prochains Passages (prochaines 24 heures)

TLE

FraisSource: Space-Track

Époque: Sep 14, 2026, 11:22 UTC

1 43620U 18071C   26257.47424690  .00001336  00000-0  10973-3 0  9996
2 43620  97.4477  70.2440 0017271 181.3743 178.7437 15.00698908435811

Suivez PSLV R/B en temps réel avec AllMySat

Download on the App Store